Date String (YYYY-MM-DD hh:mm:ss) UTC,Instrument flags,Ambient pressure (hPa),Sample flow (lpm),Bypass flow (lpm),Sample temperature (°C),Ambient temperature (°C),ASC tube jacket temperature (°C),LED temperature (°C),Box temperature (°C),Sample RH (%),Span deviation,Mass concentration (μg/m³),Mass concentration (μg/m³),Mass concentration (μg/m³)
DateTimeUTC,F1_M11,P_M11,Q1_M11,Q2_M11,T1_M11,T2_M11,T3_M11,T4_M11,T5_M11,U1_M11,ZSPAN_M11,X0_M11,X2_M11,X1_M11
2022-02-03 21:00:00,,0827.0,5.00,0.00,23.3,22.5,00.0,32.2,25.2,05.1,0001.5,0015.07,0011.07,0010.62
2022-02-03 21:01:00,,0827.0,5.01,0.00,23.3,22.5,00.0,32.2,25.2,05.1,0001.4,0015.00,0011.03,0010.60
2022-02-03 21:02:00,,0827.0,4.99,0.00,23.3,22.5,00.0,32.2,25.1,05.1,0001.4,0014.89,0010.96,0010.56
2022-02-03 21:03:00,,0827.0,5.01,0.00,23.3,22.5,00.0,32.2,25.1,05.1,0001.4,0015.11,0010.90,0010.52
2022-02-03 21:04:00,,0827.0,5.00,0.00,23.3,22.5,00.0,32.2,25.1,05.0,0001.3,0015.22,0010.85,0010.48
2022-02-03 21:05:00,,0827.0,5.00,0.00,23.3,22.5,00.0,32.2,25.1,05.1,0000.7,0015.98,0010.83,0010.45
2022-02-03 21:06:00,,0827.0,5.01,0.00,23.3,22.5,00.0,32.2,25.1,05.0,0000.1,0015.95,0010.80,0010.43
2022-02-03 21:07:00,,0826.9,4.98,0.00,23.3,22.5,00.0,32.2,25.2,05.1,0000.0,0015.64,0010.81,0010.42
2022-02-03 21:08:00,,0827.0,5.01,0.00,23.3,22.5,00.0,32.2,25.2,05.1,-000.0,0015.25,0010.77,0010.40
2022-02-03 21:09:00,,0827.0,4.99,0.00,23.3,22.5,00.0,32.2,25.1,05.2,-000.0,0015.62,0010.77,0010.39
2022-02-03 21:10:00,,0826.9,5.01,0.00,23.3,22.5,00.0,32.2,25.1,05.1,0000.4,0015.92,0010.80,0010.41
2022-02-03 21:11:00,,0826.9,5.01,0.00,23.3,22.5,00.0,32.2,25.1,05.1,0000.1,0016.46,0010.77,0010.41
2022-02-03 21:12:00,,0827.0,4.99,0.00,23.3,22.5,00.0,32.2,25.1,05.1,0000.3,0016.39,0010.75,0010.41
2022-02-03 21:13:00,,0827.0,5.00,0.00,23.3,22.5,00.0,32.2,25.1,05.0,0000.3,0016.42,0010.76,0010.40
2022-02-03 21:14:00,,0827.0,5.00,0.00,23.3,22.5,00.0,32.2,25.1,05.0,0000.2,0016.30,0010.77,0010.39
2022-02-03 21:15:00,,0827.0,4.99,0.00,23.3,22.5,00.0,32.2,25.1,05.0,-000.1,0016.02,0010.76,0010.38
2022-02-03 21:16:00,,0827.0,5.00,0.00,23.3,22.5,00.0,32.2,25.1,05.0,0000.3,0015.50,0010.76,0010.37
2022-02-03 21:17:00,,0827.0,4.99,0.00,23.3,22.5,00.0,32.2,25.1,05.0,0000.6,0015.34,0010.75,0010.36
2022-02-03 21:18:00,,0827.0,5.01,0.00,23.3,22.5,00.0,32.2,25.1,05.0,0001.0,0015.37,0010.76,0010.36
2022-02-03 21:19:00,,0827.0,4.99,0.00,23.3,22.6,00.0,32.2,25.2,05.1,0001.1,0015.43,0010.77,0010.36
2022-02-03 21:20:00,,0827.1,5.01,0.00,23.3,22.6,00.0,32.2,25.2,05.1,0001.4,0015.15,0010.76,0010.36
2022-02-03 21:21:00,,0827.1,4.99,0.00,23.3,22.5,00.0,32.2,25.2,04.9,0001.5,0014.83,0010.74,0010.36
2022-02-03 21:22:00,,0827.1,5.00,0.00,23.3,22.5,00.0,32.2,25.1,04.9,0001.8,0014.44,0010.75,0010.37
2022-02-03 21:23:00,,0827.1,4.99,0.00,23.3,22.5,00.0,32.2,25.1,05.0,0001.8,0014.49,0010.80,0010.39
2022-02-03 21:24:00,,0827.1,5.00,0.00,23.3,22.6,00.0,32.2,25.2,05.0,0001.5,0014.68,0010.87,0010.44
2022-02-03 21:25:00,,0827.1,4.99,0.00,23.3,22.6,00.0,32.2,25.2,05.0,0001.6,0014.88,0010.91,0010.48
2022-02-03 21:26:00,,0827.2,5.01,0.00,23.3,22.6,00.0,32.2,25.2,05.0,0001.8,0015.00,0010.96,0010.52
2022-02-03 21:27:00,,0827.5,5.00,0.00,23.4,22.6,00.0,32.2,25.2,05.1,0002.0,0015.08,0011.00,0010.54
2022-02-03 21:28:00,,0827.6,5.00,0.00,23.4,22.6,00.0,32.2,25.2,05.1,0002.1,0015.20,0011.07,0010.59
2022-02-03 21:29:00,,0827.3,4.99,0.00,23.4,22.6,00.0,32.2,25.2,05.1,0002.1,0015.34,0011.15,0010.63
2022-02-03 21:30:00,,0827.3,5.02,0.00,23.4,22.7,00.0,32.2,25.2,05.1,0002.3,0015.39,0011.19,0010.67
2022-02-03 21:31:00,,0827.3,4.99,0.00,23.4,22.7,00.0,32.2,25.2,05.0,0001.6,0015.44,0011.23,0010.69
2022-02-03 21:32:00,,0827.3,5.01,0.00,23.4,22.7,00.0,32.3,25.2,05.0,0001.6,0015.30,0011.24,0010.69
2022-02-03 21:33:00,,0827.4,4.99,0.00,23.4,22.7,00.0,32.3,25.2,05.0,0001.7,0015.20,0011.26,0010.69
2022-02-03 21:34:00,,0827.4,5.01,0.00,23.4,22.6,00.0,32.3,25.2,05.1,0002.2,0015.13,0011.24,0010.69
2022-02-03 21:35:00,,0827.4,5.00,0.00,23.4,22.6,00.0,32.3,25.2,05.0,0002.6,0015.02,0011.21,0010.67
2022-02-03 21:36:00,,0827.4,5.00,0.00,23.4,22.6,00.0,32.3,25.2,05.0,0002.6,0014.78,0011.19,0010.66
2022-02-03 21:37:00,,0827.4,5.02,0.00,23.4,22.6,00.0,32.3,25.2,05.0,0003.1,0014.72,0011.20,0010.66
2022-02-03 21:38:00,,0827.4,4.98,0.00,23.4,22.6,00.0,32.3,25.2,05.1,0002.9,0014.62,0011.18,0010.67
2022-02-03 21:39:00,,0827.4,5.01,0.00,23.4,22.6,00.0,32.3,25.2,05.1,0002.4,0014.62,0011.14,0010.65
2022-02-03 21:40:00,,0827.4,4.99,0.00,23.4,22.6,00.0,32.3,25.2,05.1,0002.3,0014.46,0011.07,0010.63
2022-02-03 21:41:00,,0827.4,5.00,0.00,23.4,22.6,00.0,32.3,25.2,05.0,0002.3,0014.42,0011.04,0010.62
2022-02-03 21:42:00,,0827.3,4.99,0.00,23.4,22.6,00.0,32.3,25.2,04.8,0002.9,0014.31,0010.97,0010.58
2022-02-03 21:43:00,,0827.4,5.01,0.00,23.4,22.6,00.0,32.3,25.2,04.8,0002.8,0014.15,0010.89,0010.53
2022-02-03 21:44:00,,0827.4,5.00,0.00,23.4,22.6,00.0,32.3,25.1,04.8,0002.5,0014.10,0010.87,0010.51
2022-02-03 21:45:00,,0827.4,5.02,0.00,23.4,22.6,00.0,32.3,25.1,04.9,0001.9,0014.12,0010.87,0010.49
2022-02-03 21:46:00,,0827.4,4.99,0.00,23.3,22.6,00.0,32.3,25.1,04.9,0001.6,0014.21,0010.86,0010.50
2022-02-03 21:47:00,,0827.4,5.01,0.00,23.3,22.6,00.0,32.3,25.1,04.9,0001.4,0014.48,0010.87,0010.50
2022-02-03 21:48:00,,0827.4,5.00,0.00,23.3,22.5,00.0,32.3,25.0,05.0,0001.2,0014.78,0010.87,0010.49
2022-02-03 21:49:00,,0827.4,4.99,0.00,23.3,22.5,00.0,32.3,25.0,05.1,0001.4,0014.76,0010.85,0010.49
2022-02-03 21:50:00,,0827.4,5.01,0.00,23.2,22.4,00.0,32.2,25.0,05.1,0001.8,0014.60,0010.84,0010.50
2022-02-03 21:51:00,,0827.4,4.99,0.00,23.2,22.4,00.0,32.2,24.9,05.1,0001.5,0014.65,0010.87,0010.52
2022-02-03 21:52:00,,0827.4,5.02,0.00,23.2,22.3,00.0,32.2,24.9,05.0,0001.3,0014.65,0010.87,0010.51
2022-02-03 21:53:00,,0827.5,4.99,0.00,23.2,22.3,00.0,32.2,24.9,05.1,0001.2,0014.76,0010.94,0010.52
2022-02-03 21:54:00,,0827.4,5.01,0.00,23.1,22.3,00.0,32.2,24.9,05.0,0001.0,0014.84,0010.99,0010.56
2022-02-03 21:55:00,,0827.4,4.97,0.00,23.1,22.3,00.0,32.2,24.9,05.1,0000.8,0014.87,0010.99,0010.56
2022-02-03 21:56:00,,0827.4,5.01,0.00,23.1,22.2,00.0,32.2,24.9,05.1,0001.0,0015.21,0010.96,0010.54
2022-02-03 21:57:00,,0827.4,4.99,0.00,23.1,22.2,00.0,32.1,24.8,05.1,0000.7,0015.11,0010.93,0010.51
2022-02-03 21:58:00,,0827.5,5.00,0.00,23.1,22.2,00.0,32.1,24.8,05.1,0001.1,0014.83,0010.89,0010.47
2022-02-03 21:59:00,,0827.5,5.01,0.00,23.0,22.2,00.0,32.1,24.8,05.1,0000.9,0014.54,0010.86,0010.44
